Regional Weather Roundup
Issued by NWS Upton, NY

Current Version | Previous Version | Text Only | Print | Product List | Glossary On
Versions: 1 2 3 4 5 6 7 8 9 10 11 12 13 14 15 16 17 18 19 20 21 22 23 24 25 26 27
000
ASUS41 KOKX 212308
RWROKX

REGIONAL WEATHER ROUNDUP
NATIONAL WEATHER SERVICE NEW YORK NY
700 PM EDT SAT OCT 21 2017

NOTE: "FAIR" INDICATES FEW OR NO CLOUDS BELOW 12,000 FEET WITH NO
SIGNIFICANT WEATHER AND/OR OBSTRUCTIONS TO VISIBILITY.

NYZ071-072-176-178-NJZ106-104-220000-
NEW YORK CITY METRO AREA

CITY           SKY/WX    TMP DP  RH WIND       PRES   REMARKS
Central Park   CLOUDY    66  41  40 CALM      30.35R
Bronx Bot Gard   N/A     66  37  34 E2        30.35R
LaGuardia APRT CLOUDY    69  37  30 S9        30.33R
Kennedy INTL   CLOUDY    63  53  70 S9        30.35R
Breezy Point     N/A     64 N/A N/A S8          N/A
Newark/Liberty CLOUDY    70  44  39 S5        30.33R
Teterboro      PTCLDY    67  43  41 VRB5      30.32R
$$

NYZ177-179-078>081-220000-
LONG ISLAND NEW YORK

CITY           SKY/WX    TMP DP  RH WIND       PRES   REMARKS
Jones Beach      N/A     63 N/A N/A SW5         N/A
Matinecock PT    N/A     66 N/A N/A SW10        N/A
Farmingdale    PTCLDY    63  55  75 SW3       30.34R
MacArthur/ISP  CLOUDY    61  55  81 SW5       30.34R
Shirley        CLOUDY    63  56  78 SW5       30.34R
Mt Sinai Harb    N/A     63 N/A N/A SW12        N/A
Westhampton    CLOUDY    61  52  72 SW3       30.35R
East Hampton   FAIR      59  54  82 CALM      30.33R
Montauk          N/A     63  55  75 SW6       30.34R
$$

NYZ052-065-067-220000-
HUDSON VALLEY

CITY           SKY/WX    TMP DP  RH WIND       PRES   REMARKS
White Plains   CLOUDY    60  47  61 CALM      30.33R
Larchmont Harb   N/A     66 N/A N/A S9          N/A
Croton On Huds   N/A     64 N/A N/A E2          N/A
Newburgh       MOCLDY    66  43  42 W6        30.33R
Montgomery     CLOUDY    60  48  64 SW5       30.31R
Poughkeepsie   CLOUDY    59  49  69 CALM      30.30R
Albany         CLOUDY    59  48  67 CALM      30.30R
$$

NJZ001-105-106-008-010-013-015-019>022-104-220000-
NEW JERSEY

CITY           SKY/WX    TMP DP  RH WIND       PRES   REMARKS
Newark/Liberty CLOUDY    70  44  39 S5        30.33R
Teterboro      PTCLDY    67  43  41 VRB5      30.32R
Caldwell       CLOUDY    64  48  56 CALM      30.34R
Somerville     PTCLDY    59  49  69 CALM      30.32R
Linden         FAIR      68  45  43 CALM      30.33S
Perth Amboy      N/A     66 N/A N/A SE5         N/A
Sussex         CLOUDY    59  49  69 W3        30.34R
Andover          N/A     56  49  77 CALM      30.34R
Trenton        CLOUDY    66  43  43 CALM      30.33R
Millville      CLOUDY    57  51  80 CALM      30.35R
Atlantic City  CLOUDY    64  55  72 S5        30.36R
Wrightstown    CLEAR     60  52  74 CALM      30.32R
Toms River       N/A     58  51  78 CALM      30.36R
Belmar         CLOUDY    63  50  62 S6        30.36R
$$

PAZ047>061-062-071-220000-
EASTERN PENNSYLVANIA

CITY           SKY/WX    TMP DP  RH WIND       PRES   REMARKS
Philadelphia   CLOUDY    70  47  43 S6        30.34R
Allentown      CLEAR     63  44  50 CALM      30.34R
Scranton       CLOUDY    62  45  53 S3        30.35R
$$

CTZ002-004>006-009-010-012-RIZ004-006-007-MAZ004-011-015-220000-
SOUTHERN NEW ENGLAND
 IN CT

CITY           SKY/WX    TMP DP  RH WIND       PRES   REMARKS
Bradley INTL   CLOUDY    65  42  43 W5        30.30R
Hartford       CLOUDY    64  48  56 S7        30.30R
Danbury        CLOUDY    59  48  67 SW3       30.33R
Wtrbury/Oxford CLOUDY    63  48  58 S5        30.34R
Norwalk Harbor NOT AVBL
Bridgeport     CLOUDY    67  51  56 SW8       30.33R
Meriden        CLOUDY    62  46  55 SE3       30.32R
New Haven      CLOUDY    65  51  60 VRB6      30.33R
Chester        FAIR      63  50  63 VRB7      30.33R
Groton         CLOUDY    63  53  70 SW8       30.32R
Wilimantic     PTCLDY    65  46  50 S5        30.32R

 IN RI

CITY           SKY/WX    TMP DP  RH WIND       PRES   REMARKS
Providence     CLOUDY    63  47  55 S3        30.32R
Block Island   CLOUDY    62  55  77 SW13      30.34R
Westerly       CLOUDY    64  55  72 SW6       30.33R
 IN MA

CITY           SKY/WX    TMP DP  RH WIND       PRES   REMARKS
Boston         CLOUDY    64  48  56 SE10      30.29R
Worcester      CLOUDY    65  38  36 W8        30.32R
Westfield      PTCLDY    61  47  59 CALM      30.30R
Provincetown   CLEAR     59  54  83 SW8       30.31R
Nantucket      CLEAR     59  55  87 SW9       30.33R
$$

ANZ330-335-338-340-345-350-353-355-220000-
COASTAL MARINE OBSERVATIONS


STATION/POSITION TIME  SKY/WX   TEMP    WIND        PRES    VSBY  WAVE
                                AIR SEA DIR/SP/G                  HT/PER
                 (UTC)          (F)     (DEG/KT/KT) (MB)    (MI)  (FT/S)
NY HARB ENTRANCE 2250            65 65  200/  8/ 10 1026.9          2/ 8
20 S FIRE ISLAND 2250            64 65  210/  8/ 10 1027.5          2/ 8
GREAT SOUTH BAY  2230            63 63  220/  4/  6   N/A
15 E BARNEGAT LI NOT AVBL
HUDSON CANYON    2150            65 66  210/  4/  4 1026.6          2/ 9
KINGS POINT      2224            66 66  200/  5/  7 1027.7
EXECUTION ROCKS  2230            67     180/ 10/ 12   N/A
WESTERN LI SOUND 2149            68     210/ 10/ 12   N/A           1
CENTRAL LI SOUND 2200            67     210/ 12/ 14   N/A           0
EASTERN LI SOUND NOT AVBL
ROBBINS REEF     2224            67     170/  9/ 10 1027.5
$$


>>>>>>>>>>>>>>>>>>>>>>>>>>>> KEY <<<<<<<<<<<<<<<<<<<<<<<<<<<
>                                                          <
>     SKY/WX - Sky Condition/Present Weather               <
>     TMP    - Temperature in Fahrenheit                   <
>     DP     - Dew Point in Fahrenheit                     <
>     RH     - Relative Humidity in Percent                <
>     WIND   - Direction (from) and Speed in MPH           <
>     PRES   - Mean Sea Level Pressure (inches of Hg)      <
>     WCI    - Wind Chill Index                            <
>     VSB    - VISIBILITY IN MILES                         <
>     HX     - HEAT INDEX                                  <
>     TC     - TEMPERATURE IN CELSIUS                      <
>     VRB    - VARIABLE WIND DIRECTION                     <
>                                                          <
>>>>>>>>>>>>>>>>>>>>>>>>>>>> KEY <<<<<<<<<<<<<<<<<<<<<<<<<<<




USA.gov is the U.S. government's official web portal to all federal, state and local government web resources and services.